When you browse on this site, cookies collect data to enhance your experience and personalize the content and advertising you see.
Visit our Privacy Policy to learn more. By continuing to use the site, you agree to this use of cookies and data.
  • In Netherlands
  • List of Countries
  • For 7 days
  • Water Temperature
  • Weather Map
  • Weather Widgets
  • user-avatar
    Login

    Hourly Weather Zilbachi

    Today, 17 February, Monday

    Time Temperature Precipitation Wind Pressure Humidity
    00:00 -4°C° 0 mm 1 mps 661 mmHg 86%
    01:00 -4°C° 0 mm 1 mps 661 mmHg 83%
    02:00 -4°C° 0 mm 1 mps 660 mmHg 79%
    03:00 -6°C° 0 mm 1 mps 660 mmHg 78%
    04:00 -6°C° 0 mm 1 mps 660 mmHg 76%
    05:00 -6°C° 0 mm 1 mps 660 mmHg 74%
    06:00 -6°C° 0 mm 1 mps 660 mmHg 72%
    07:00 -4°C° 0 mm 1 mps 661 mmHg 76%
    08:00 -4°C° 0 mm 1 mps 661 mmHg 81%
    09:00 -3°C° 0 mm 1 mps 662 mmHg 85%
    10:00 -4°C° 0 mm 2 mps 662 mmHg 84%
    11:00 -3°C° 0 mm 2 mps 662 mmHg 84%
    12:00 -3°C° 0 mm 2 mps 662 mmHg 83%
    13:00 -4°C° 0 mm 3 mps 662 mmHg 84%
    14:00 -2°C° 0 mm 3 mps 662 mmHg 84%
    15:00 -2°C° 0 mm 3 mps 661 mmHg 85%
    16:00 -4°C° 0 mm 3 mps 661 mmHg 87%
    17:00 -4°C° 0 mm 2 mps 661 mmHg 89%
    18:00 -4°C° 0 mm 2 mps 661 mmHg 91%
    19:00 -5°C° 0 mm 2 mps 661 mmHg 89%
    20:00 -5°C° 0 mm 2 mps 661 mmHg 87%
    21:00 -5°C° 0 mm 2 mps 661 mmHg 86%
    22:00 -6°C° 0 mm 2 mps 661 mmHg 83%
    23:00 -6°C° 0 mm 2 mps 661 mmHg 81%

    Tomorrow, 18 February, Tuesday

    Time Temperature Precipitation Wind Pressure Humidity
    00:00 -6°C° 0 mm 2 mps 660 mmHg 78%
    01:00 -6°C° 0 mm 2 mps 660 mmHg 74%
    02:00 -4°C° 0 mm 1 mps 660 mmHg 70%
    03:00 -3°C° 0 mm 1 mps 660 mmHg 66%
    04:00 -3°C° 0 mm 1 mps 660 mmHg 64%
    05:00 -3°C° 0 mm 1 mps 659 mmHg 63%
    06:00 -5°C° 0 mm 2 mps 659 mmHg 61%
    07:00 -3°C° 0 mm 2 mps 660 mmHg 63%
    08:00 -2°C° 0 mm 2 mps 660 mmHg 65%
    09:00 -1°C° 0 mm 2 mps 660 mmHg 67%
    10:00 +1°C° 0 mm 2 mps 660 mmHg 70%
    11:00 +2°C° 0 mm 2 mps 660 mmHg 73%
    12:00 +2°C° 0 mm 2 mps 659 mmHg 77%
    13:00 +2°C° 0 mm 2 mps 659 mmHg 78%
    14:00 +3°C° 0 mm 2 mps 659 mmHg 78%
    15:00 +4°C° 0 mm 1 mps 658 mmHg 79%
    16:00 +3°C° 0 mm 1 mps 658 mmHg 76%
    17:00 +2°C° 0 mm 1 mps 658 mmHg 73%
    18:00 +2°C° 0 mm 1 mps 657 mmHg 71%
    19:00 +1°C° 0 mm 2 mps 657 mmHg 66%
    20:00 +1°C° 0 mm 2 mps 657 mmHg 62%
    21:00 +1°C° 0 mm 2 mps 657 mmHg 57%
    22:00 +1°C° 0 mm 2 mps 656 mmHg 55%
    23:00 +1°C° 0 mm 2 mps 656 mmHg 53%

    Day after tomorrow, 19 February, Wednesday

    Time Temperature Precipitation Wind Pressure Humidity
    00:00 +1°C° 0 mm 2 mps 655 mmHg 51%
    01:00 +1°C° 0 mm 2 mps 655 mmHg 50%
    02:00 +1°C° 0 mm 2 mps 654 mmHg 49%
    03:00 -1°C° 0 mm 2 mps 654 mmHg 48%
    04:00 -1°C° 0 mm 2 mps 654 mmHg 47%
    05:00 -1°C° 0 mm 2 mps 653 mmHg 45%
    06:00 -1°C° 0 mm 2 mps 653 mmHg 44%
    07:00 +2°C° 0 mm 1 mps 654 mmHg 49%
    08:00 +3°C° 0 mm 1 mps 654 mmHg 54%
    09:00 +4°C° 0 mm 1 mps 654 mmHg 59%
    10:00 +5°C° 0 mm 1 mps 654 mmHg 64%
    11:00 +5°C° 0 mm 1 mps 654 mmHg 69%
    12:00 +6°C° 0 mm 1 mps 654 mmHg 75%
    13:00 +6°C° 0 mm 1 mps 654 mmHg 75%
    14:00 +5°C° 0 mm 1 mps 654 mmHg 76%
    15:00 +5°C° 0 mm 1 mps 654 mmHg 77%
    16:00 +4°C° 0 mm 1 mps 653 mmHg 75%
    17:00 +3°C° 0 mm 1 mps 653 mmHg 73%
    18:00 +2°C° 0 mm 1 mps 653 mmHg 71%
    19:00 +2°C° 0 mm 1 mps 653 mmHg 68%
    20:00 +2°C° 0 mm 1 mps 652 mmHg 65%
    21:00 +1°C° 0 mm 1 mps 652 mmHg 62%
    22:00 +1°C° 0 mm 1 mps 652 mmHg 60%
    23:00 +1°C° 0 mm 1 mps 652 mmHg 59%

    20 February, Thursday

    Time Temperature Precipitation Wind Pressure Humidity
    00:00 +1°C° 0 mm 1 mps 651 mmHg 57%
    01:00 +1°C° 0 mm 1 mps 651 mmHg 58%
    02:00 +1°C° 0 mm 1 mps 651 mmHg 58%
    03:00 0°C° 0 mm 1 mps 651 mmHg 59%
    04:00 0°C° 0 mm 1 mps 651 mmHg 59%
    05:00 0°C° 0 mm 1 mps 651 mmHg 58%
    06:00 0°C° 0 mm 1 mps 650 mmHg 57%
    07:00 +1°C° 0 mm 1 mps 651 mmHg 59%
    08:00 +2°C° 0 mm 1 mps 651 mmHg 61%
    09:00 +2°C° 0 mm 0 mps 652 mmHg 63%
    10:00 +3°C° 0 mm 1 mps 651 mmHg 66%
    11:00 +3°C° 0 mm 1 mps 651 mmHg 69%
    12:00 +4°C° 0 mm 1 mps 651 mmHg 71%
    13:00 +4°C° 0 mm 1 mps 651 mmHg 73%
    14:00 +4°C° 0 mm 1 mps 650 mmHg 74%
    15:00 +4°C° 0 mm 1 mps 650 mmHg 75%
    16:00 +3°C° 0 mm 1 mps 650 mmHg 80%
    17:00 +1°C° 0 mm 0 mps 650 mmHg 84%
    18:00 0°C° 0 mm 0 mps 650 mmHg 88%
    19:00 -1°C° 0 mm 0 mps 649 mmHg 88%
    20:00 -1°C° 0 mm 0 mps 649 mmHg 88%
    21:00 -1°C° 0 mm 0 mps 649 mmHg 88%
    22:00 -1°C° 0 mm 0 mps 649 mmHg 86%
    23:00 -2°C° 0 mm 0 mps 649 mmHg 85%

    21 February, Friday

    Time Temperature Precipitation Wind Pressure Humidity
    00:00 -1°C° 0 mm 1 mps 649 mmHg 84%
    01:00 -1°C° 0 mm 1 mps 649 mmHg 84%
    02:00 -1°C° 0 mm 1 mps 649 mmHg 83%
    03:00 -1°C° 0 mm 1 mps 649 mmHg 83%
    04:00 -1°C° 0 mm 1 mps 649 mmHg 83%
    05:00 -1°C° 0 mm 1 mps 649 mmHg 83%
    06:00 -1°C° 0 mm 1 mps 649 mmHg 83%
    07:00 0°C° 0 mm 1 mps 649 mmHg 83%
    08:00 0°C° 0 mm 1 mps 650 mmHg 83%
    09:00 +1°C° 0 mm 1 mps 650 mmHg 82%
    16:00 +1°C° 0 mm 1 mps 650 mmHg 88%
    17:00 0°C° 0 mm 1 mps 651 mmHg 89%
    18:00 0°C° 0 mm 1 mps 651 mmHg 90%
    19:00 0°C° 0 mm 1 mps 651 mmHg 88%
    20:00 -1°C° 0 mm 1 mps 652 mmHg 86%
    21:00 -1°C° 0 mm 1 mps 652 mmHg 84%
    22:00 -1°C° 0 mm 1 mps 652 mmHg 83%
    23:00 -1°C° 0 mm 1 mps 652 mmHg 83%

    22 February, Saturday

    Time Temperature Precipitation Wind Pressure Humidity
    00:00 -1°C° 0 mm 1 mps 652 mmHg 82%
    01:00 -1°C° 0 mm 1 mps 652 mmHg 80%
    02:00 -1°C° 0 mm 1 mps 652 mmHg 79%
    03:00 -1°C° 0 mm 1 mps 652 mmHg 78%
    04:00 -2°C° 0 mm 1 mps 652 mmHg 77%
    05:00 -2°C° 0 mm 1 mps 653 mmHg 76%
    06:00 -2°C° 0 mm 1 mps 653 mmHg 75%
    07:00 -1°C° 0 mm 1 mps 653 mmHg 74%
    08:00 +1°C° 0 mm 1 mps 654 mmHg 73%
    09:00 +2°C° 0 mm 1 mps 654 mmHg 72%
    10:00 +2°C° 0 mm 1 mps 654 mmHg 73%
    11:00 +3°C° 0 mm 1 mps 654 mmHg 74%
    12:00 +2°C° 0 mm 2 mps 654 mmHg 75%
    13:00 +2°C° 0 mm 2 mps 654 mmHg 77%
    14:00 +2°C° 0 mm 2 mps 654 mmHg 79%
    15:00 +2°C° 0 mm 2 mps 654 mmHg 81%
    16:00 +2°C° 0 mm 1 mps 654 mmHg 84%
    17:00 +1°C° 0 mm 1 mps 654 mmHg 88%
    18:00 0°C° 0 mm 1 mps 653 mmHg 91%
    19:00 -1°C° 0 mm 0 mps 654 mmHg 91%
    20:00 -1°C° 0 mm 0 mps 654 mmHg 91%
    21:00 -1°C° 0 mm 0 mps 654 mmHg 91%
    22:00 -1°C° 0 mm 0 mps 654 mmHg 91%
    23:00 -1°C° 0 mm 0 mps 654 mmHg 91%
    Show more